[[{"header":{"parameterUnit":"m.s-1","parameterCategory":1,"la1":30.2991,"la2":30.254,"lo1":-89.0895,"lo2":-89.0444,"dy":0.0017,"dx":0.0017,"nx":28,"ny":28,"refTime":"2025-11-26T09:00:00:Z","depth":0,"parameterNumber":2,"parameterNumberName":"U-component_of_WINDS"},"data":[0,0,0,0,0,0,0,0,0,0,0,0,0,0,0,0,0,0,0,0,0,0,0,0,0,0,0,0,0,0,0,0,0,0,0,0,0,0,0,0,0,0,0,0,0,0,0,0,0,0,0,0,0,0,0,0,0,0,0.3451,0.3451,0,0.3468,0.3469,0.3469,0.3483,0.3483,0.3483,0.3483,0.3501,0.3501,0.3501,0,0,0,0,0,0,0,0,0,0,0,0,0,0.343,0.343,0.3451,0.3451,0.3451,0.3468,0.3469,0.3469,0.3483,0.3483,0.3483,0.3483,0.35,0.3501,0.3501,0,0,0,0,0,0,0,0,0,0,0,0,0,0.3442,0.343,0.3451,0.346,0.3461,0.3468,0.3469,0.3469,0.3483,0.3483,0.3483,0.3483,0.35,0.3501,0.3501,0.3501,0,0,0.3503,0.3503,0,0,0,0,0,0,0,0,0.3442,0.3443,0.3459,0.3459,0.3461,0.3474,0.3468,0.348,0.3482,0.3474,0.3483,0.3483,0.3491,0.3493,0.3496,0.3501,0.3502,0.3503,0.3503,0.3504,0.3504,0,0,0,0,0,0,0,0.3441,0.3442,0.3458,0.3459,0.346,0.3464,0.3466,0.347,0.3482,0.3475,0.3476,0.3478,0.3492,0.3495,0.3496,0.3502,0.3503,0.3503,0.3504,0.3504,0.3511,0.351,0,0,0,0,0,0,0.3438,0.3442,0.3457,0.3458,0.3451,0.3464,0.3466,0.3469,0.3482,0.3484,0.3478,0.3479,0.3494,0.3495,0.3497,0.3498,0.3504,0.3504,0.3504,0.3511,0.351,0.351,0,0,0,0,0,0,0.3438,0.344,0.3456,0.345,0.3453,0.3464,0.3467,0.3469,0.3472,0.3484,0.3486,0.3479,0.3494,0.3496,0.35,0.3498,0.3504,0.3505,0.3511,0.3511,0.351,0.3499,0,0,0,0,0,0,0.3437,0.3439,0.3439,0.345,0.3453,0.3459,0.3467,0.347,0.3473,0.3474,0.3485,0.3487,0.3495,0.3499,0.35,0.3499,0.3505,0.3511,0.3511,0.351,0.3499,0.3498,0.3497,0,0,0,0,0,0.3436,0.3434,0.3439,0.344,0.3452,0.3459,0.3461,0.3469,0.3473,0.3473,0.3481,0.3487,0.3499,0.3499,0.3501,0.35,0.3511,0.3511,0.351,0.35,0.3498,0.3497,0,0,0,0,0,0,0.3422,0.3436,0.3441,0.3442,0.3449,0.3461,0.3461,0.3467,0.3473,0.3474,0.3485,0.3487,0.349,0.3496,0.3496,0.3501,0.3506,0.3506,0.3497,0.3496,0.3495,0.3493,0.3506,0,0,0,0,0,0.3419,0.3423,0.3435,0.3435,0.3438,0.3449,0.3452,0.3459,0.3466,0.3469,0.3477,0.3484,0.349,0.3493,0.3499,0.3501,0.3504,0.3501,0.35,0.3499,0.3498,0.3501,0.35,0.3509,0.3509,0.3509,0,0,0.3412,0.3421,0.3422,0.3432,0.3439,0.3443,0.3451,0.3455,0.3459,0.347,0.3474,0.348,0.3489,0.3493,0.3494,0.3497,0.3497,0.3498,0.3497,0.3498,0.3501,0.35,0.3499,0.3509,0.3509,0.3509,0,0,0.3403,0.3409,0.3411,0.3417,0.3427,0.3435,0.3435,0.3446,0.3451,0.3456,0.3465,0.3469,0.3478,0.3485,0.3489,0.3485,0.3491,0.3486,0.3481,0.3483,0.3482,0.3482,0.3481,0.348,0.3486,0.3486,0.3486,0,0.3394,0.34,0.3411,0.3414,0.3419,0.343,0.3432,0.3438,0.3449,0.3452,0.3455,0.3468,0.3475,0.348,0.348,0.3483,0.3484,0.3485,0.3482,0.3481,0.3481,0.348,0.348,0.3486,0.3486,0.3486,0.3486,0,0.3389,0.3394,0.3394,0.3405,0.3409,0.3412,0.3424,0.3427,0.3434,0.3441,0.3447,0.3456,0.3464,0.3466,0.3472,0.3473,0.3475,0.348,0.3485,0.3479,0.3479,0.3479,0.3485,0.3485,0.3485,0.3485,0,0,0.3369,0.3387,0.3387,0.3393,0.3406,0.341,0.3414,0.3422,0.3426,0.3433,0.3437,0.3446,0.3451,0.3456,0.3464,0.3466,0.3463,0.3471,0.3471,0.3469,0.3466,0.3462,0.3461,0.3468,0.3468,0.3467,0.3465,0,0.3362,0.337,0.338,0.3384,0.3389,0.3401,0.3405,0.3413,0.3421,0.3427,0.3435,0.3441,0.3447,0.3451,0.3454,0.3463,0.3462,0.3463,0.3472,0.3472,0.3469,0.3461,0.3456,0.3454,0.3465,0.3465,0.3465,0,0.3354,0.3362,0.3367,0.3381,0.3383,0.3386,0.3396,0.3401,0.3412,0.3417,0.3424,0.3432,0.3438,0.3443,0.3452,0.3452,0.3456,0.3462,0.3462,0.3463,0.3468,0.3462,0.3453,0.3452,0.3465,0.3465,0.3465,0,0.334,0.3352,0.3357,0.3361,0.3377,0.3379,0.3386,0.3397,0.3402,0.3411,0.3414,0.3423,0.3428,0.3436,0.3447,0.3449,0.3454,0.346,0.346,0.3459,0.346,0.3459,0.3451,0.3463,0.3463,0.3463,0.3463,0,0.333,0.3333,0.3351,0.3354,0.3358,0.337,0.3374,0.3382,0.3392,0.3397,0.3408,0.3413,0.3427,0.3434,0.3442,0.3449,0.3451,0.3456,0.3458,0.3455,0.3454,0.3458,0.3458,0.3462,0.3462,0.3462,0.3462,0,0.3315,0.3326,0.3333,0.3348,0.3352,0.3354,0.3368,0.3371,0.338,0.3387,0.3389,0.3404,0.3412,0.3424,0.3436,0.3443,0.3448,0.3451,0.3444,0.3446,0.3445,0.3445,0.3438,0.3439,0.345,0.3449,0.3449,0,0.3308,0.331,0.3326,0.3331,0.3337,0.3344,0.335,0.3363,0.3369,0.3382,0.3385,0.3394,0.3403,0.3417,0.3428,0.3438,0.3442,0.3439,0.3443,0.3441,0.3442,0.3442,0.3443,0.3438,0.3438,0.3438,0.3437,0,0.3294,0.3301,0.3308,0.3319,0.3325,0.3334,0.3343,0.3347,0.3362,0.3368,0.3377,0.3384,0.3397,0.3407,0.3419,0.3427,0.3435,0.3436,0.3437,0.3433,0.3429,0.3432,0.3442,0.3436,0.3436,0.3436,0.3436,0.3436,0.3283,0.3286,0.3299,0.3307,0.3316,0.3325,0.333,0.334,0.3348,0.336,0.3368,0.3377,0.339,0.3406,0.3414,0.3422,0.3425,0.3425,0.3426,0.3426,0.3425,0.3428,0.3424,0.3424,0.3424,0.3424,0.3424,0,0.3271,0.328,0.3288,0.3301,0.3308,0.3316,0.3327,0.3333,0.3341,0.3352,0.3361,0.3372,0.3382,0.3396,0.3407,0.3411,0.3415,0.3413,0.3413,0.3415,0.3421,0.342,0.341,0.341,0.341,0.341,0.341,0.341,0.3265,0.3272,0.328,0.3291,0.33,0.331,0.3316,0.3324,0.3333,0.3346,0.3355,0.3363,0.3376,0.3388,0.3398,0.3402,0.3406,0.3403,0.3408,0.3413,0.3414,0.3416,0.3414,0.3404,0.3404,0.3402,0.3402,0.3402]},{"header":{"parameterUnit":"m.s-1","parameterCategory":1,"la1":30.2991,"la2":30.254,"lo1":-89.0895,"lo2":-89.0444,"dy":0.0017,"dx":0.0017,"nx":28,"ny":28,"refTime":"2025-11-26T09:00:00:Z","depth":0,"parameterNumber":3,"parameterNumberName":"V-component_of_WINDS"},"data":[0,0,0,0,0,0,0,0,0,0,0,0,0,0,0,0,0,0,0,0,0,0,0,0,0,0,0,0,0,0,0,0,0,0,0,0,0,0,0,0,0,0,0,0,0,0,0,0,0,0,0,0,0,0,0,0,0,0,-6.032,-6.032,0,-6.0319,-6.0319,-6.0319,-6.0263,-6.0262,-6.026,-6.0259,-6.0256,-6.0257,-6.0258,0,0,0,0,0,0,0,0,0,0,0,0,0,-6.0274,-6.0275,-6.032,-6.032,-6.032,-6.0319,-6.0319,-6.0319,-6.0263,-6.0262,-6.026,-6.0258,-6.0255,-6.0257,-6.0258,0,0,0,0,0,0,0,0,0,0,0,0,0,-6.0285,-6.0275,-6.032,-6.0292,-6.029,-6.0319,-6.0319,-6.0319,-6.0264,-6.0262,-6.0259,-6.0257,-6.0255,-6.0257,-6.0259,-6.0313,0,0,-6.0264,-6.0265,0,0,0,0,0,0,0,0,-6.0285,-6.0287,-6.0296,-6.0294,-6.0291,-6.0289,-6.0301,-6.0317,-6.0264,-6.0274,-6.0259,-6.0256,-6.0268,-6.0269,-6.0273,-6.0313,-6.0313,-6.0265,-6.0266,-6.0266,-6.0267,0,0,0,0,0,0,0,-6.0284,-6.0287,-6.0319,-6.0297,-6.0294,-6.028,-6.0279,-6.0304,-6.0283,-6.0273,-6.0269,-6.0269,-6.0267,-6.0272,-6.0273,-6.0313,-6.0264,-6.0266,-6.0267,-6.0268,-6.04,-6.0402,0,0,0,0,0,0,-6.0287,-6.0287,-6.0319,-6.0319,-6.0283,-6.0282,-6.0281,-6.0292,-6.0283,-6.0279,-6.0271,-6.0267,-6.027,-6.0271,-6.0273,-6.0337,-6.0266,-6.0268,-6.0269,-6.0397,-6.04,-6.0403,0,0,0,0,0,0,-6.0286,-6.0291,-6.0319,-6.0302,-6.0305,-6.0285,-6.0298,-6.0293,-6.0298,-6.0282,-6.0277,-6.028,-6.0268,-6.027,-6.0304,-6.0336,-6.0269,-6.0271,-6.0395,-6.0398,-6.0402,-6.0467,0,0,0,0,0,0,-6.0285,-6.0291,-6.0311,-6.0303,-6.0306,-6.0351,-6.03,-6.0295,-6.0302,-6.0296,-6.0289,-6.0286,-6.0266,-6.0302,-6.0306,-6.0338,-6.0272,-6.0392,-6.0396,-6.04,-6.0462,-6.0472,-6.0481,0,0,0,0,0,-6.0284,-6.0329,-6.0313,-6.0317,-6.0331,-6.0353,-6.0355,-6.0332,-6.0305,-6.0325,-6.0315,-6.0286,-6.0332,-6.0306,-6.031,-6.0343,-6.0389,-6.0395,-6.04,-6.0457,-6.047,-6.0481,0,0,0,0,0,0,-6.034,-6.0327,-6.0309,-6.0352,-6.0355,-6.0344,-6.0369,-6.0346,-6.0355,-6.0349,-6.0321,-6.0319,-6.0359,-6.0354,-6.0325,-6.0396,-6.0356,-6.0362,-6.0398,-6.041,-6.0419,-6.0419,-6.0274,0,0,0,0,0,-6.0358,-6.0377,-6.0365,-6.0404,-6.0407,-6.0388,-6.0397,-6.0379,-6.038,-6.038,-6.0372,-6.0374,-6.0389,-6.0399,-6.0412,-6.0461,-6.0459,-6.0486,-6.0496,-6.0504,-6.0509,-6.0536,-6.0548,-6.042,-6.042,-6.042,0,0,-6.0394,-6.0389,-6.0403,-6.0416,-6.0415,-6.0436,-6.0389,-6.0412,-6.0428,-6.0384,-6.0416,-6.0411,-6.041,-6.0453,-6.0471,-6.045,-6.0545,-6.051,-6.0517,-6.0518,-6.0543,-6.0555,-6.0566,-6.0424,-6.0423,-6.0423,0,0,-6.0471,-6.0469,-6.0503,-6.0504,-6.0505,-6.0492,-6.0501,-6.0494,-6.0489,-6.0521,-6.0489,-6.0507,-6.0533,-6.0535,-6.0539,-6.0619,-6.0594,-6.0624,-6.0675,-6.0701,-6.0712,-6.072,-6.075,-6.0761,-6.063,-6.063,-6.0631,0,-6.0515,-6.0546,-6.0523,-6.0549,-6.0556,-6.0519,-6.0553,-6.0555,-6.056,-6.0565,-6.0542,-6.0576,-6.0573,-6.0616,-6.0636,-6.064,-6.0649,-6.0625,-6.0712,-6.0721,-6.0729,-6.0756,-6.0767,-6.0634,-6.0634,-6.0633,-6.0633,0,-6.0601,-6.0624,-6.0651,-6.0658,-6.0668,-6.0698,-6.0679,-6.0692,-6.0675,-6.0665,-6.0699,-6.0695,-6.0707,-6.0716,-6.0698,-6.0757,-6.0744,-6.0717,-6.0676,-6.0745,-6.0771,-6.0781,-6.064,-6.0638,-6.0637,-6.0636,0,0,-6.0711,-6.0707,-6.0718,-6.0721,-6.0721,-6.0737,-6.0766,-6.0779,-6.0791,-6.0796,-6.082,-6.0844,-6.082,-6.0825,-6.0808,-6.0831,-6.0897,-6.0801,-6.0801,-6.082,-6.0962,-6.0982,-6.0995,-6.088,-6.0882,-6.0883,-6.0962,0,-6.0786,-6.0836,-6.0818,-6.0869,-6.089,-6.0856,-6.0882,-6.0884,-6.0876,-6.0893,-6.0884,-6.0902,-6.0868,-6.0871,-6.0893,-6.0884,-6.0925,-6.0878,-6.0902,-6.0903,-6.0903,-6.1008,-6.1029,-6.1104,-6.0972,-6.0974,-6.0975,0,-6.0879,-6.0891,-6.0945,-6.0943,-6.0951,-6.0974,-6.0985,-6.1001,-6.1004,-6.0997,-6.1004,-6.0982,-6.101,-6.097,-6.1009,-6.0978,-6.0987,-6.0984,-6.0987,-6.0988,-6.0943,-6.1013,-6.1127,-6.1139,-6.099,-6.0989,-6.0988,0,-6.0955,-6.0983,-6.102,-6.1024,-6.1022,-6.104,-6.104,-6.104,-6.105,-6.106,-6.1066,-6.1079,-6.1086,-6.1096,-6.1078,-6.105,-6.1121,-6.1078,-6.1116,-6.1116,-6.1131,-6.1131,-6.125,-6.1137,-6.1137,-6.1137,-6.1137,0,-6.1041,-6.1075,-6.1054,-6.1077,-6.1115,-6.1093,-6.1132,-6.1128,-6.1129,-6.115,-6.1121,-6.1142,-6.1117,-6.1135,-6.1122,-6.1157,-6.116,-6.1155,-6.1151,-6.1158,-6.1159,-6.1163,-6.1157,-6.114,-6.1139,-6.1139,-6.1138,0,-6.1131,-6.1118,-6.1156,-6.1153,-6.1153,-6.1181,-6.1177,-6.1198,-6.119,-6.1217,-6.1222,-6.1208,-6.1228,-6.1212,-6.1231,-6.1222,-6.1269,-6.1257,-6.1268,-6.1265,-6.1304,-6.13,-6.1429,-6.1445,-6.1323,-6.1324,-6.1325,0,-6.1186,-6.1213,-6.1213,-6.1226,-6.1228,-6.1249,-6.1259,-6.124,-6.1252,-6.1258,-6.1278,-6.1296,-6.1309,-6.1343,-6.1334,-6.1349,-6.1338,-6.1382,-6.134,-6.1346,-6.1339,-6.1338,-6.1341,-6.139,-6.1392,-6.1393,-6.1394,0,-6.1286,-6.1279,-6.1296,-6.1312,-6.1326,-6.1337,-6.1345,-6.1357,-6.1337,-6.1352,-6.1373,-6.1384,-6.1405,-6.1423,-6.1435,-6.1434,-6.1411,-6.1408,-6.1417,-6.1424,-6.143,-6.1428,-6.1292,-6.1405,-6.1404,-6.1403,-6.1402,-6.1402,-6.1361,-6.1383,-6.1388,-6.1408,-6.1413,-6.1422,-6.1442,-6.1437,-6.1455,-6.1471,-6.1458,-6.1484,-6.1487,-6.1502,-6.1504,-6.1524,-6.1505,-6.1519,-6.1522,-6.1526,-6.1532,-6.1427,-6.1526,-6.1525,-6.1525,-6.1525,-6.1525,0,-6.146,-6.1462,-6.1481,-6.1495,-6.1511,-6.149,-6.1498,-6.1513,-6.1537,-6.1542,-6.1557,-6.1582,-6.16,-6.1594,-6.161,-6.1627,-6.1617,-6.1632,-6.1631,-6.1631,-6.1547,-6.1537,-6.164,-6.164,-6.164,-6.164,-6.164,-6.164,-6.1513,-6.1551,-6.1545,-6.1585,-6.1586,-6.1612,-6.162,-6.1628,-6.1633,-6.1663,-6.1678,-6.1675,-6.1676,-6.1693,-6.1709,-6.1706,-6.1714,-6.1733,-6.1727,-6.1648,-6.1637,-6.1626,-6.1617,-6.1735,-6.1735,-6.1809,-6.181,-6.181]}]]